User: anonymous   Login
Location: �terpigny
(49.8910°N, 2.9249°E)
Time: 22:23:53
(UTC+00:00)
Language:

S-56A Canister/Altair - Orbit

View from above orbital plane
View from above orbital plane
View from above satellite
View from above satellite

Ground track
Ground track

The orbit data is extracted from the following two-line orbital elements,

1 00082U 61004B   22147.88175692 -.00000020  00000-0  95741-5 0  9997
2 00082  38.8633  91.5585 1173488 267.2518  79.3595 12.26015591894886
Epoch (UTC): 27 May 2022 21:09:43
Eccentricity: 0.1173488
inclination: 38.8633°
perigee height: 634 km
apogee height: 2499 km
right ascension of ascending node: 91.5585°
argument of perigee: 267.2518°
revolutions per day: 12.26015591
mean anomaly at epoch: 79.3595°
orbit number at epoch: 89488

The dashed part of the orbit path shows where the satellite is in the earth's shadow,  

DLR